Portada
METAR-TAF:

METAR-TAF

Aeroports :

Ulurú, Austràlia

latitud: 25-11-10S, longitud: 130-58-32E, altitud: 496 m

Observació

L'informe es va fer fa 41 minuts, a les 16:03 UTC
Vent 17 kt del Sud amb ràfegues de 28 kt
Temperatura 16°C
Humitat 68%
Pressió 1017 hPa
Visibilitat 10 km o més
Cel cobert a una alçada de 12500 ft

METAR: YAYE 201603Z AUTO 18017G28KT 9999 // OVC125 16/10 Q1017

Hora: 02:14 (16:44 UTC)


TAF: manca

Observacions i pronòstics meteorològics de més de 4000 aeroports (METAR i TAF).

Les estacions disponibles són els punts grocs i vermells al mapa.

Posi el ratolí al punt desitjat per veure el nom de l'estació.

Feu clic per veure les observacions i els pronòstics meteorològics.

Per canviar el mapa: feu clic els botons verds amb una creu de color negre per apropar; al botó verd amb un guió per allunyar la imatge; o en les fletxes verdes per a mapes adjacents.


METAR-TAF: